Regional Weather Roundup
Issued by NWS

Home | Current Version | Previous Version | Graphics & Text | Print | Product List | Glossary On
Versions: 1 2 3 4 5 6 7 8 9 10 11 12 13 14 15 16 17 18 19 20 21 22 23 24 25 26 27 28 29 30 31 32 33 34 35 36 37 38 39 40 41 42 43 44 45 46 47 48 49 50
243
ASUS44 KMEG 230910
RWRTN
TENNESSEE HOURLY STATE WEATHER ROUNDUP
NATIONAL WEATHER SERVICE MEMPHIS TN
400 AM CDT WED AUG 23 2017

TNZ002-004-019-021-049-052-054-088>092-231000-
WEST TENNESSEE

CITY           SKY/WX    TMP DP  RH WIND       PRES   REMARKS
MEMPHIS INTL   PTCLDY    76  72  87 NW5       30.00R
NWS MEMPHIS      N/A     73 N/A N/A MISG        N/A
JACKSON        MOCLDY    70  70 100 CALM      30.00S FOG
DYERSBURG      PTCLDY    70  70 100 CALM      30.01S
SOMERVILLE     CLEAR     70  70 100 CALM      29.99S
COVINGTON      MOCLDY    70  70 100 CALM      30.00R
BOLIVAR        CLEAR     70  68  94 CALM      30.00R
PARIS          PTCLDY    68  68 100 N5        30.00R
HUNTINGDON     CLOUDY    70  70 100 N3        30.00R
LEXINGTON      MOCLDY    72  70  94 CALM      29.99F
SELMER         CLEAR     70  70 100 CALM      30.00R
SAVANNAH       FOG       72  72 100 CALM      29.99R VSB 1/4
$$

TNZ008-025-027-028-033-062-065-066-231000-
NORTH MIDDLE TENNESSEE

CITY           SKY/WX    TMP DP  RH WIND       PRES   REMARKS
NASHVILLE      MOCLDY    72  69  90 NW8       30.00R
PORTLAND       CLOUDY    70  70 100 N5        29.99S FOG
CLARKSVILLE    CLEAR     69  67  93 N6        30.00S
SMYRNA         CLOUDY    72  70  93 NW7       30.00S
COOKEVILLE     MOCLDY    72  70  94 NW5       29.98S
GALLATIN       CLOUDY    72  70  94 CALM      30.01S
CROSSVILLE     CLOUDY    69  67  93 N7        30.02S
$$

TNZ061-075-076-078-094-096-097-231000-
SOUTH MIDDLE TENNESSEE

CITY           SKY/WX    TMP DP  RH WIND       PRES   REMARKS
TULLAHOMA      CLOUDY    70  68  94 NW3       30.02S
WINCHESTER     CLOUDY    72  70  94 NW3       30.01S
MCMINNVILLE    CLOUDY    72  72 100 CALM      30.00R
COLUMBIA       CLOUDY    72  72 100 CALM      29.99R
SHELBYVILLE    CLOUDY    72  70  94 NW5       30.00S
$$

TNZ017-018-042-046-047-231000-
NORTHEAST TENNESSEE

CITY           SKY/WX    TMP DP  RH WIND       PRES   REMARKS
TRI CITIES     CLOUDY    73  68  84 SW5       29.96S
ELIZABETHTON   CLOUDY    70  66  88 CALM      29.96S
$$

TNZ012-013-036-069-073-074-231000-
CENTRAL EAST TENNESSEE

CITY           SKY/WX    TMP DP  RH WIND       PRES   REMARKS
KNOXVILLE      CLOUDY    74  70  87 SW6       29.95S
OAK RIDGE      CLOUDY    77  68  73 CALM      29.96S
DOWNTOWN KNOXV   N/A     73  73 100 CALM      29.94S
GATLINBURG     MOCLDY    75  66  73 W3        29.95S
MORRISTOWN     CLOUDY    75  70  83 W7        29.95S
JACKSBORO        N/A     73  70  88 CALM      29.99S
$$

TNZ083-085-099-231000-
SOUTHEAST TENNESSEE

CITY           SKY/WX    TMP DP  RH WIND       PRES   REMARKS
CHATTANOOGA    CLOUDY    77  68  73 NW7       29.97S
DAYTON         CLOUDY    75  72  88 CALM      29.95S
$$

SKY/WX REPORTED AS FAIR MEANS FEW OR NO CLOUDS BELOW
12 THOUSAND FEET.





USA.gov is the U.S. government's official web portal to all federal, state and local government web resources and services.